SCP
0 0 0 0 0 0 0 0 0 0 0 0 0 0 0 0 0 0 0 0 0 0 0 0 0 0 0 0 0 0 0 0 0 0 0 0 0 0 0 0 0 0 0
0 0 0 0 0 0 0 0 0 0 0 0 0 0 0 0 0 0 0 0 0 0 0 0 0 0 0 0 0 0 0 0 0 0 0 0 0 0 0 0 0 0 0
0 0 0 0 0 0 0 0 0 0 0 0 0 0 0 0 0 0 0 0 0 0 0 0 0 0 0 0 0 0 0 0 0 0 0 0 0 0 0 0 0 0 0
0 0 0 0 0 0 0 0 0 0 0 0 0 0 0 0 0 0 0 0 0 0 0 0 0 0 0 0 0 0 0 0 0 0 0 0 0 0 0 0 0 0 0
0 0 0 0 0 0 0 0 0 0 0 0 0 0 0 0 0 0 0 0 0 0 0 0 0 0 0 0 0 0 0 0 0 0 0 0 0 0 0 0 0 0 0
0 0 0 0 0 0 0 0 0 0 0 0 0 0 0 0 0 0 0 0 0 0 0 0 0 0 0 0 0 0 0 0 0 0 0 0 0 0 0 0 0 0 0
0 0 0 0 0 0 0 0 0 0 0 0 0 0 0 0 0 0 0 0 0 0 0 0 0 0 0 0 0 0 0 0 0 0 0 0 0 0 0 0 0 0 0
0 0 0 0 0 0 0 0 0 0 0 0 0 0 0 0 0 0 0 0 0 0 0 0 0 0 0 0 0 0 0 0 0 0 0 0 0 0 0 0 0 0 0
0 0 0 0 0 0 0 0 0 0 0 0 0 0 0 0 0 0 0 0 0 0 0 0 0 0 0 0 0 0 0 0 0 0 0 0 0 0 0 0 0 0 0
0 0 0 0 0 0 0 0 0 0 0 0 0 0 0 0 0 0 0 0 0 0 0 0 0 0 0 0 0 0 0 0 0 0 0 0 0 0 0 0 0 0 0
0 0 0 0 0 0 0 0 0 0 0 0 0 0 0 0 0 0 0 0 0 0 0 0 0 0 0 0 0 0 0 0 0 0 0 0 0 0 0 0 0 0 0
0 0 0 0 0 0 0 0 0 0 0 0 0 0 0 0 0 0 0 0 0 0 0 0 0 0 0 0 0 0 0 0 0 0 0 0 0 0 0 0 0 0 0
0 0 0 0 0 0 0 0 0 0 0 0 0 0 0 0 0 0 0 0 0 0 0 0 0 0 0 0 0 0 0 0 0 0 0 0 0 0 0 0 0 0 0
0 0 0 0 0 0 0 0 0 0 0 0 0 0 0 0 0 0 0 0 0 0 0 0 0 0 0 0 0 0 0 0 0 0 0 0 0 0 0 0 0 0 0
0 0 0 0 0 0 0 0 0 0 0 0 0 0 0 0 0 0 0 0 0 0 0 0 0 0 0 0 0 0 0 0 0 0 0 0 0 0 0 0 0 0 0
0 0 0 0 0 0 0 0 0 0 0 0 0 0 0 0 0 0 0 0 0 0 0 0 0 0 0 0 0 0 0 0 0 0 0 0 0 0 0 0 0 0 0
0 0 0 0 0 0 0 0 0 0 0 0 0 0 0 0 0 0 0 0 0 0 0 0 0 0 0 0 0 0 0 0 0 0 0 0 0 0 0 0 0 0 0
0 0 0 0 0 0 0 0 0 0 0 0 0 0 0 0 0 0 0 0 0 0 0 0 0 0 0 0 0 0 0 0 0 0 0 0 0 0 0 0 0 0 0
0 0 0 0 0 0 0 0 0 0 0 0 0 0 0 0 0 0 0 0 0 0 0 0 0 0 0 0 0 0 0 0 0 0 0 0 0 0 0 0 0 0 0
0 0 0 0 0 0 0 0 0 0 0 0 0 0 0 0 0 0 0 0 0 0 0 0 0 0 0 0 0 0 0 0 0 0 0 0 0 0 0 0 0 0 0
0 0 0 0 0 0 0 0 0 0 0 0 0 0 0 0 0 0 0 0 0 0 0 0 0 0 0 0 0 0 0 0 0 0 0 0 0 0 0 0 0 0 0
0 0 0 0 0 0 0 0 0 0 0 0 0 0 0 0 0 0 0 0 0 0 0 0 0 0 0 0 0 0 0 0 0 0 0 0 0 0 0 0 0 0 0
0 0 0 0 0 0 0 0 0 0 0 0 0 0 0 0 0 0 0 0 0 0 0 0 0 0 0 0 0 0 0 0 0 0 0 0 0 0 0 0 0 0 0
0 0 0 0 0 0 0 0 0 0 0 0 0 0 0 0 0 0 0 0 0 0 0 0 0 0 0 0 0 0 0 0 0 0 0 0 0 0 0 0 0 0 0
0 0 0 0 0 0 0 0 0 0 0 0 0 0 0 0 0 0 0 0 0 0 0 0 0 0 0 0 0 0 0 0 0 0 0 0 0 0 0 0 0 0 0
0 0 0 0 0 0 0 0 0 0 0 0 0 0 0 0 0 0 0 0 0 0 0 0 0 0 0 0 0 0 0 0 0 0 0 0 0 0 0 0 0 0 0
Wind_Speed
2 2 2 1 1 1 1 0 1 1 1 1 1 1 1 1 1 0 1 1 1 1 1 1 1 1 1 1 1 1 2 2 3 2 1 1 1 2 1 2 1 1 1
1 2 2 1 1 1 1 1 1 1 1 1 1 1 1 1 1 1 1 1 1 2 2 1 1 1 2 1 1 1 2 2 3 3 1 1 2 2 2 2 2 1 0
1 1 1 1 1 2 1 1 1 0 0 1 1 1 1 1 1 1 1 1 1 2 2 2 2 2 2 1 2 2 1 1 2 2 2 1 2 1 2 2 2 1 1
1 2 1 1 1 1 1 0 0 0 0 0 0 1 1 0 1 1 1 1 1 2 2 2 2 2 2 2 2 2 2 1 2 2 1 1 1 1 2 1 1 1 2
1 2 1 1 1 0 0 0 0 0 0 0 0 1 1 1 1 2 2 2 1 1 2 2 1 2 3 3 2 2 2 2 1 2 2 1 1 1 2 2 2 2 2
2 2 1 1 1 1 0 0 0 0 0 0 1 1 1 1 2 3 3 2 2 2 2 2 2 2 1 1 2 3 3 3 2 2 2 3 2 2 2 2 2 2 2
2 2 1 1 1 1 1 1 0 0 0 0 1 1 1 0 1 1 3 3 2 2 2 2 2 1 2 2 2 3 3 3 4 4 3 3 3 3 3 3 3 3 3
2 1 1 1 1 1 1 1 1 1 1 1 1 1 1 0 1 1 3 3 2 2 2 2 2 3 2 3 3 3 3 2 3 4 4 3 3 3 4 4 4 4 3
1 1 2 2 2 1 1 1 1 1 1 1 1 1 1 1 1 1 3 2 2 2 2 2 3 3 2 4 4 4 3 2 1 1 2 2 2 3 3 2 2 3 3
2 2 2 2 2 2 2 1 0 1 1 1 1 1 2 2 1 1 3 2 2 2 2 2 2 3 3 3 4 4 3 3 2 2 3 3 3 3 3 4 3 3 3
3 2 1 1 2 1 1 0 0 0 0 1 1 1 2 2 1 0 2 2 2 2 2 2 1 3 4 3 5 4 3 4 3 3 3 2 2 2 3 3 3 3 4
2 1 1 1 0 0 1 0 0 1 0 1 1 1 1 2 2 1 1 2 3 2 2 2 2 2 3 3 3 3 3 4 3 3 3 2 2 2 2 3 4 4 4
1 1 1 1 1 0 1 1 1 1 0 0 1 1 1 2 1 1 1 2 3 2 2 3 3 3 3 2 2 3 3 2 2 3 3 3 2 2 2 2 3 3 4
1 1 1 1 1 1 0 0 0 0 0 1 1 1 1 1 2 2 1 1 1 2 2 1 1 1 2 2 2 2 2 2 2 3 3 3 2 2 2 2 2 2 3
1 1 1 1 1 1 1 1 1 1 1 1 1 1 1 1 3 4 3 2 2 2 2 1 1 1 1 1 2 2 2 2 2 2 2 2 2 2 2 2 2 3 3
1 1 0 0 0 0 1 1 3 2 3 3 4 3 2 3 3 4 4 4 3 2 1 1 1 2 2 2 2 2 2 2 2 2 2 2 3 3 2 2 2 3 3
1 0 0 0 1 0 0 0 1 1 2 2 3 3 4 4 3 3 3 2 2 1 1 1 2 2 2 3 3 3 3 3 2 2 2 2 3 3 3 3 2 3 3
0 0 1 0 0 0 0 0 0 1 1 1 2 2 3 3 3 3 3 1 0 0 1 2 2 3 3 3 3 3 3 3 3 3 3 3 3 3 3 3 3 3 3
0 0 1 1 1 1 0 0 0 1 1 2 2 2 3 2 2 3 2 1 1 1 2 2 2 3 3 3 3 3 3 3 3 3 3 3 3 3 3 3 3 3 4
1 2 2 1 1 1 1 0 0 1 1 1 2 2 3 2 2 2 2 2 2 2 2 2 3 3 3 3 3 3 3 3 3 3 3 3 3 3 4 4 4 4 4
1 2 2 1 1 1 1 1 1 1 1 1 2 3 4 2 2 2 2 2 2 3 3 3 3 3 3 3 3 3 4 3 3 4 3 3 3 3 4 4 4 4 4
1 1 1 1 1 1 1 1 1 1 1 1 2 2 2 2 2 2 2 2 3 3 3 3 3 3 3 3 4 4 4 4 4 4 3 4 3 3 4 4 4 4 4
1 1 1 1 1 1 0 0 1 1 1 1 1 1 1 2 2 2 3 3 3 3 3 3 3 3 3 3 3 4 4 4 4 4 4 4 4 4 4 4 5 5 5
1 1 1 1 1 0 0 1 1 1 1 1 1 1 1 2 2 2 3 3 3 3 3 3 3 4 6 5 3 3 4 5 5 4 5 5 4 4 4 5 5 5 5
1 1 1 1 1 0 1 1 1 1 1 1 1 1 1 2 2 2 3 3 4 4 4 4 4 4 6 7 6 5 6 8 8 6 5 5 5 5 5 6 5 5 5
1 1 0 0 0 0 1 1 1 1 1 1 1 1 2 2 2 3 3 3 3 4 4 4 5 6 7 6 7 8 8 9 8 8 6 4 5 5 5 5 6 5 6
Wind_Direction
201 197 192 191 214 209 226 268 303 329 334 349 355 8 9 11 21 17 260 261 263 229 231 253 260 274 259 281 287 281 269 263 262 273 278 287 285 294 309 293 267 224 135
210 197 207 192 196 208 204 224 278 305 337 348 360 15 19 359 8 2 321 287 282 260 245 243 255 264 266 269 276 280 276 266 262 268 264 279 282 285 281 277 279 280 221
226 197 201 208 208 213 214 225 254 298 350 35 39 21 13 355 346 331 296 284 294 296 277 267 271 269 264 261 259 267 275 281 272 260 263 285 273 279 272 271 280 287 266
219 201 201 220 230 235 211 230 240 252 302 342 348 349 335 319 308 289 290 292 300 312 301 281 280 281 278 277 269 274 281 270 258 256 246 247 284 292 273 268 275 300 287
241 215 214 224 227 227 181 200 191 233 255 306 308 331 346 348 346 331 318 304 284 280 287 270 282 321 340 323 310 291 280 258 244 246 244 245 240 240 263 270 269 274 284
239 231 218 224 212 213 205 199 184 255 281 257 261 288 299 349 18 355 317 294 292 276 279 277 233 217 232 266 320 315 307 278 260 241 245 247 255 251 262 259 263 262 276
250 243 214 215 215 222 203 186 203 231 257 285 269 258 262 28 28 327 307 287 290 295 287 289 287 273 265 262 229 233 237 241 257 263 253 258 267 265 261 260 258 265 279
256 257 233 219 225 216 212 225 243 250 232 257 280 269 270 286 7 326 302 274 274 287 286 288 287 285 301 301 278 260 264 257 246 252 262 268 276 279 263 264 266 267 268
266 251 245 224 215 211 217 224 228 244 252 261 265 266 267 264 330 312 303 278 267 284 293 291 291 292 334 311 277 262 255 252 181 242 310 310 328 314 291 265 263 255 263
311 278 253 240 228 227 229 227 245 246 250 267 276 268 273 283 305 313 299 277 275 290 293 280 300 315 325 293 270 267 263 266 248 210 225 219 233 215 226 244 248 256 271
325 318 304 254 231 222 220 194 164 188 250 271 274 286 280 298 298 330 315 291 286 284 285 282 313 339 325 296 284 280 293 289 257 241 242 243 239 238 230 245 256 255 263
339 346 340 334 292 164 135 135 143 142 194 246 267 308 306 300 314 286 294 306 320 287 284 290 329 351 336 320 293 320 318 287 261 241 239 243 246 246 251 255 260 262 268
351 8 9 34 55 84 131 146 159 160 194 275 294 308 322 326 340 359 302 304 316 297 299 335 343 343 315 292 313 312 283 269 266 255 256 264 266 264 265 265 268 270 274
18 17 22 43 50 50 88 143 164 165 228 276 290 300 310 321 340 346 317 272 277 284 286 297 297 320 294 322 329 289 274 278 270 266 271 281 282 267 256 257 262 263 265
21 28 27 38 31 34 44 35 4 26 12 328 300 293 298 310 351 357 341 326 316 320 311 303 317 318 318 321 312 313 309 290 274 278 283 286 284 273 272 273 266 267 266
356 15 30 52 49 20 41 54 57 39 38 25 7 356 347 358 8 2 353 352 352 341 298 303 312 309 315 319 317 317 313 308 301 293 283 284 284 276 274 270 268 266 271
303 340 60 82 79 79 26 20 34 54 61 52 36 19 10 9 10 0 359 2 5 325 277 294 298 300 307 312 312 313 311 310 301 289 289 290 288 281 275 267 264 266 269
227 59 55 74 112 107 80 14 348 351 4 17 38 30 14 10 12 15 12 9 23 235 292 299 302 304 307 309 314 315 309 308 303 291 286 284 283 282 280 275 269 269 267
158 86 88 69 71 85 78 59 21 336 359 10 9 27 25 9 22 38 42 1 346 336 328 319 315 312 312 312 312 310 303 297 298 297 291 286 282 284 282 282 280 279 273
112 84 68 73 76 85 89 78 54 25 21 26 16 15 19 15 19 25 10 347 337 335 335 333 329 324 319 317 315 310 304 302 303 299 298 295 290 286 284 283 285 275 268
106 114 110 92 75 66 74 67 51 45 41 25 21 30 19 357 4 2 359 352 342 335 335 333 329 326 324 324 319 312 309 307 304 299 294 292 291 291 291 288 284 280 277
111 108 106 86 70 55 32 45 57 51 46 27 15 35 26 358 5 355 350 349 344 337 335 332 327 326 325 322 317 314 310 305 300 296 295 290 284 282 279 277 276 275 272
115 113 106 91 75 87 67 40 63 47 29 16 17 20 9 354 355 349 345 342 337 336 335 329 321 320 319 317 313 310 309 309 306 302 296 294 289 284 279 276 275 273 269
119 117 102 90 82 71 29 17 29 46 26 5 360 359 353 342 338 336 333 331 330 328 327 322 320 321 321 320 315 312 312 315 311 302 295 288 287 285 281 280 276 272 271
130 121 100 88 73 27 355 348 348 6 10 346 341 340 338 333 332 329 327 328 328 327 328 324 319 318 319 320 322 323 329 327 321 313 303 294 286 284 282 279 276 273 270
140 129 109 80 61 5 338 329 332 342 344 332 324 322 323 326 326 322 323 325 326 323 321 320 322 323 321 319 323 328 328 323 320 314 305 294 289 284 286 284 282 274 268